COSMOS 1691 DEB, 43316

Orbit data source: Space-Track

COSMOS 1691 DEB, 43316 is space debris in LEO originally from a launch on Wed, 09 Oct 1985 UTC launched from the Plesetsk Missile And Space Complex (PKMTR). Debris objects in space refer to the collection of defunct objects orbiting the Earth. Examples of debris include non-operational satellites, rocket bodies, and fragments generated from explosions, collisions, or faulty payload assembly.

Loading next visibility...
Identifier
43316, 1985-094AA
Orbit
LEO
Country
Flag of CISCIS
Related business
Manufacturer
Unknown
Mission
Spacecraft
Bus & Motor
Unknown
Mass
Unknown
Launch date (UTC)
1985-10-09 (40 years ago)
Launch vehicle
Unknown
Launch site
Plesetsk Missile And Space Complex (PKMTR)
Object type
Payload
Rocket body
Debris
Shape & HBR
Unknown shape, 0.1 m
Radar Cross Section
Small (<0.1 m²)

Expand to show TLE details & history
Last TLE update: 6 days ago

TLE from 6 days ago
0 COSMOS 1691 DEB
1 43316U 85094AA  25289.47475834  .00000529  00000-0  25708-2 0  9991
2 43316  82.6070   2.1230 0011837 207.7793 152.2673 12.71113624 44591
Epoch: 2025-10-16T11:23Z
TLE epoch observation values (Epoch: 2025-10-16T11:23:39.120Z)
Latitude
0.00004°
Longitude
165.97605°
Altitude
1,388.279 km
Speed
7.162 km/s
True Right ascension
00h 08m 29s
True Declination
0° 00' 00"
Sunlit
Object was in full shadow at epoch
Visualization orbit readout
Latitude
Unknown
Longitude
Unknown
Altitude
Unknown
Speed
Unknown
Apparent Right ascension
Unknown
Apparent Declination
Unknown
Sunlit
N/A
Visualization observer readout
Local Sidereal Time
10:02:54
Azimuth
Unknown
Elevation
Unknown
Doppler factor
Unknown
Orbital elements
Apogee altitude
1,383.891 km
Perigee altitude
1,365.537 km
Semi-major axis
7,752.851 km
Eccentricity
0.00118
Inclination
82.607°
RAAN
2.123°
Arg. of periapsis
207.7793°
True anomaly
152.33034°
Mean anomaly
152.2673°
Eccentric anomaly
152.29883°
Mean motion
3.17944 °/min
Orbital period
113.23 mins
BSTAR
0.0025708
Loading maneuver chart data...
Computing Atmospheric mass density...
Loading historical data...
Loading historical data...
Loading historical data...
Loading historical data...
Loading historical data...
Loading historical data...
Loading historical data...

Documentation

Showing up to 5 results
|